Time,TemperatureF,DewpointF,PressureIn,WindDirection,WindDirectionDegrees,WindSpeedMPH,WindSpeedGustMPH,Humidity,HourlyPrecipIn,Conditions,Clouds,dailyrainin,SoftwareType,DateUTC
2013-01-25 00:02:00,24.0,5.0,30.10,ENE,68,1.0,6.0,43,0.00,,,0.00,,2013-01-25 06:02:00,
2013-01-25 00:11:00,24.0,5.0,30.10,ENE,68,1.0,6.0,43,0.00,,,0.00,,2013-01-25 06:11:00,
2013-01-25 00:21:00,24.0,5.0,30.06,ENE,59,1.0,3.0,43,0.00,,,0.00,,2013-01-25 06:21:00,
2013-01-25 00:32:00,24.0,5.0,30.05,ENE,72,2.0,7.0,43,0.00,,,0.00,,2013-01-25 06:32:00,
2013-01-25 00:42:00,24.0,5.0,30.05,ENE,72,2.0,7.0,43,0.00,,,0.00,,2013-01-25 06:42:00,
2013-01-25 00:52:00,24.0,4.0,30.03,NE,51,3.0,8.0,42,0.00,,,0.00,,2013-01-25 06:52:00,
2013-01-25 01:02:00,24.0,4.0,30.02,ENE,66,3.0,7.0,42,0.00,,,0.00,,2013-01-25 07:02:00,
2013-01-25 01:11:00,24.0,4.0,30.02,ENE,66,3.0,7.0,42,0.00,,,0.00,,2013-01-25 07:11:00,
2013-01-25 01:21:00,24.0,4.0,30.01,East,92,2.0,5.0,42,0.00,,,0.00,,2013-01-25 07:21:00,
2013-01-25 01:32:00,24.0,4.0,29.98,East,99,2.0,8.0,42,0.00,,,0.00,,2013-01-25 07:32:00,
2013-01-25 01:42:00,24.0,4.0,29.98,East,99,2.0,8.0,42,0.00,,,0.00,,2013-01-25 07:42:00,
2013-01-25 01:52:00,24.0,4.0,29.99,East,84,2.0,9.0,41,0.00,,,0.00,,2013-01-25 07:52:00,
2013-01-25 02:01:00,24.0,4.0,29.98,ENE,76,1.0,7.0,41,0.00,,,0.00,,2013-01-25 08:01:00,
2013-01-25 02:11:00,24.0,4.0,29.98,ENE,76,1.0,7.0,41,0.00,,,0.00,,2013-01-25 08:11:00,
2013-01-25 02:21:00,24.0,4.0,29.97,East,85,2.0,6.0,42,0.00,,,0.00,,2013-01-25 08:21:00,
2013-01-25 02:32:00,24.0,4.0,29.96,East,82,2.0,8.0,42,0.00,,,0.00,,2013-01-25 08:32:00,
2013-01-25 02:41:00,24.0,4.0,29.96,East,82,2.0,8.0,42,0.00,,,0.00,,2013-01-25 08:41:00,
2013-01-25 02:52:00,24.0,5.0,29.97,ENE,71,2.0,5.0,43,0.00,,,0.00,,2013-01-25 08:52:00,
2013-01-25 03:01:00,24.0,5.0,29.95,ENE,76,2.0,9.0,43,0.00,,,0.00,,2013-01-25 09:01:00,
2013-01-25 03:11:00,24.0,5.0,29.95,ENE,76,2.0,9.0,43,0.00,,,0.00,,2013-01-25 09:11:00,
2013-01-25 03:21:00,24.0,5.0,29.95,ENE,73,2.0,8.0,44,0.00,,,0.00,,2013-01-25 09:21:00,
2013-01-25 03:31:00,24.0,6.0,29.93,ENE,73,2.0,5.0,45,0.00,,,0.00,,2013-01-25 09:31:00,
2013-01-25 03:42:00,24.0,6.0,29.93,ENE,73,2.0,5.0,45,0.00,,,0.00,,2013-01-25 09:42:00,
2013-01-25 03:52:00,24.0,6.0,29.93,ENE,74,2.0,4.0,46,0.00,,,0.00,,2013-01-25 09:52:00,
2013-01-25 04:02:00,24.0,6.0,29.94,East,90,1.0,3.0,46,0.00,,,0.00,,2013-01-25 10:02:00,
2013-01-25 04:12:00,24.0,6.0,29.94,East,90,1.0,3.0,46,0.00,,,0.00,,2013-01-25 10:12:00,
2013-01-25 04:21:00,24.0,6.0,29.94,East,90,0.0,3.0,46,0.00,,,0.00,,2013-01-25 10:21:00,
2013-01-25 04:32:00,24.0,8.0,29.92,East,85,1.0,4.0,50,0.00,,,0.00,,2013-01-25 10:32:00,
2013-01-25 04:42:00,24.0,8.0,29.92,East,85,1.0,4.0,50,0.00,,,0.00,,2013-01-25 10:42:00,
2013-01-25 04:51:00,24.0,9.0,29.92,East,93,2.0,4.0,52,0.00,,,0.00,,2013-01-25 10:51:00,
2013-01-25 05:02:00,23.0,12.0,29.92,ENE,75,0.0,2.0,61,0.00,,,0.00,,2013-01-25 11:02:00,
2013-01-25 05:11:00,23.0,12.0,29.92,ENE,75,0.0,2.0,61,0.00,,,0.00,,2013-01-25 11:11:00,
2013-01-25 05:22:00,23.0,11.0,29.93,East,88,0.0,2.0,60,0.00,,,0.00,,2013-01-25 11:22:00,
2013-01-25 05:32:00,23.0,11.0,29.93,East,87,2.0,2.0,60,0.00,,,0.00,,2013-01-25 11:32:00,
2013-01-25 05:42:00,23.0,11.0,29.93,East,87,2.0,2.0,60,0.00,,,0.00,,2013-01-25 11:42:00,
2013-01-25 05:52:00,23.0,12.0,29.91,East,90,0.0,2.0,62,0.00,,,0.00,,2013-01-25 11:52:00,
2013-01-25 06:02:00,23.0,12.0,29.90,ENE,62,0.0,2.0,62,0.00,,,0.00,,2013-01-25 12:02:00,
2013-01-25 06:11:00,23.0,12.0,29.90,ENE,62,0.0,2.0,62,0.00,,,0.00,,2013-01-25 12:11:00,
2013-01-25 06:22:00,23.0,12.0,29.90,ESE,119,1.0,2.0,63,0.00,,,0.00,,2013-01-25 12:22:00,
2013-01-25 06:32:00,23.0,13.0,29.89,East,92,0.0,2.0,65,0.00,,,0.00,,2013-01-25 12:32:00,
2013-01-25 06:42:00,23.0,13.0,29.89,East,92,0.0,2.0,65,0.00,,,0.00,,2013-01-25 12:42:00,
2013-01-25 06:52:00,23.0,13.0,29.90,ENE,73,0.0,2.0,65,0.00,,,0.00,,2013-01-25 12:52:00,
2013-01-25 07:02:00,23.0,13.0,29.89,ENE,68,0.0,2.0,66,0.00,,,0.00,,2013-01-25 13:02:00,
2013-01-25 07:11:00,23.0,13.0,29.89,ENE,68,0.0,2.0,66,0.00,,,0.00,,2013-01-25 13:11:00,
2013-01-25 07:22:00,23.0,13.0,29.89,ENE,64,0.0,2.0,66,0.00,,,0.00,,2013-01-25 13:22:00,
2013-01-25 07:32:00,23.0,13.0,29.90,East,93,0.0,2.0,66,0.00,,,0.00,,2013-01-25 13:32:00,
2013-01-25 07:42:00,23.0,13.0,29.90,East,93,0.0,2.0,66,0.00,,,0.00,,2013-01-25 13:42:00,
2013-01-25 07:53:00,23.0,13.0,29.91,East,90,0.0,2.0,65,0.00,,,0.00,,2013-01-25 13:53:00,
2013-01-25 08:03:00,23.0,13.0,29.91,East,90,0.0,2.0,65,0.00,,,0.00,,2013-01-25 14:03:00,
2013-01-25 08:12:00,23.0,13.0,29.91,East,90,0.0,2.0,65,0.00,,,0.00,,2013-01-25 14:12:00,
2013-01-25 08:23:00,24.0,14.0,29.91,East,99,0.0,2.0,66,0.00,,,0.00,,2013-01-25 14:23:00,
2013-01-25 08:32:00,24.0,14.0,29.91,East,90,0.0,2.0,65,0.00,,,0.00,,2013-01-25 14:32:00,
2013-01-25 08:42:00,24.0,14.0,29.91,East,90,0.0,2.0,65,0.00,,,0.00,,2013-01-25 14:42:00,
2013-01-25 08:53:00,24.0,13.0,29.91,ESE,115,1.0,3.0,63,0.00,,,0.00,,2013-01-25 14:53:00,
2013-01-25 09:02:00,25.0,14.0,29.91,ESE,111,0.0,2.0,63,0.00,,,0.00,,2013-01-25 15:02:00,
2013-01-25 09:12:00,25.0,14.0,29.91,ESE,111,0.0,2.0,63,0.00,,,0.00,,2013-01-25 15:12:00,
2013-01-25 09:22:00,25.0,14.0,29.91,ESE,109,1.0,3.0,63,0.00,,,0.00,,2013-01-25 15:22:00,
2013-01-25 09:32:00,25.0,14.0,29.91,ESE,106,1.0,2.0,63,0.00,,,0.00,,2013-01-25 15:32:00,
2013-01-25 09:42:00,25.0,14.0,29.91,ESE,106,1.0,2.0,63,0.00,,,0.00,,2013-01-25 15:42:00,
2013-01-25 09:52:00,27.0,15.0,29.91,SE,138,1.0,5.0,60,0.00,,,0.00,,2013-01-25 15:52:00,
2013-01-25 10:03:00,28.0,14.0,29.91,SSE,152,2.0,8.0,56,0.00,,,0.00,,2013-01-25 16:03:00,
2013-01-25 10:12:00,28.0,14.0,29.91,SSE,152,2.0,8.0,56,0.00,,,0.00,,2013-01-25 16:12:00,
2013-01-25 10:22:00,28.0,14.0,29.91,SW,233,2.0,6.0,54,0.00,,,0.00,,2013-01-25 16:22:00,
2013-01-25 10:32:00,30.0,14.0,29.90,SSW,201,3.0,6.0,51,0.00,,,0.00,,2013-01-25 16:32:00,
2013-01-25 10:43:00,30.0,14.0,29.90,SSW,201,3.0,6.0,51,0.00,,,0.00,,2013-01-25 16:43:00,
2013-01-25 10:53:00,31.0,14.0,29.91,SSW,199,3.0,8.0,49,0.00,,,0.00,,2013-01-25 16:53:00,
2013-01-25 11:02:00,32.0,15.0,29.90,SW,223,2.0,6.0,50,0.00,,,0.00,,2013-01-25 17:02:00,
2013-01-25 11:12:00,32.0,15.0,29.90,SW,223,2.0,6.0,50,0.00,,,0.00,,2013-01-25 17:12:00,
2013-01-25 11:22:00,32.0,15.0,29.90,West,265,4.0,7.0,49,0.00,,,0.00,,2013-01-25 17:22:00,
2013-01-25 11:32:00,32.0,15.0,29.89,West,264,2.0,8.0,50,0.00,,,0.00,,2013-01-25 17:32:00,
2013-01-25 11:43:00,32.0,15.0,29.89,West,264,2.0,8.0,50,0.00,,,0.00,,2013-01-25 17:43:00,
2013-01-25 11:53:00,34.0,16.0,29.88,WSW,256,3.0,8.0,48,0.00,,,0.00,,2013-01-25 17:53:00,
2013-01-25 12:03:00,35.0,16.0,29.87,WSW,249,2.0,9.0,46,0.00,,,0.00,,2013-01-25 18:03:00,
2013-01-25 12:12:00,35.0,16.0,29.87,WSW,249,2.0,9.0,46,0.00,,,0.00,,2013-01-25 18:12:00,
2013-01-25 12:23:00,34.0,16.0,29.87,NW,308,3.0,9.0,48,0.00,,,0.00,,2013-01-25 18:23:00,
2013-01-25 12:33:00,34.0,17.0,29.85,West,259,4.0,9.0,49,0.00,,,0.00,,2013-01-25 18:33:00,
2013-01-25 12:42:00,34.0,17.0,29.85,West,259,4.0,9.0,49,0.00,,,0.00,,2013-01-25 18:42:00,
2013-01-25 12:52:00,35.0,17.0,29.85,West,262,2.0,8.0,48,0.00,,,0.00,,2013-01-25 18:52:00,
2013-01-25 13:02:00,36.0,18.0,29.86,WSW,237,3.0,8.0,48,0.00,,,0.00,,2013-01-25 19:02:00,
2013-01-25 13:12:00,36.0,18.0,29.86,WSW,237,3.0,8.0,48,0.00,,,0.00,,2013-01-25 19:12:00,
2013-01-25 13:22:00,35.0,18.0,29.84,SW,218,2.0,8.0,49,0.00,,,0.00,,2013-01-25 19:22:00,
2013-01-25 13:32:00,37.0,19.0,29.84,WSW,257,4.0,8.0,48,0.00,,,0.00,,2013-01-25 19:32:00,
2013-01-25 13:42:00,37.0,19.0,29.84,WSW,257,4.0,8.0,48,0.00,,,0.00,,2013-01-25 19:42:00,
2013-01-25 13:53:00,39.0,19.0,29.85,SW,234,4.0,11.0,45,0.00,,,0.00,,2013-01-25 19:53:00,
2013-01-25 14:02:00,40.0,20.0,29.84,WSW,250,4.0,8.0,45,0.00,,,0.00,,2013-01-25 20:02:00,
2013-01-25 14:12:00,40.0,20.0,29.84,WSW,250,4.0,8.0,45,0.00,,,0.00,,2013-01-25 20:12:00,
2013-01-25 14:22:00,39.0,19.0,29.84,WSW,244,4.0,11.0,45,0.00,,,0.00,,2013-01-25 20:22:00,
2013-01-25 14:32:00,41.0,20.0,29.84,SW,228,5.0,11.0,43,0.00,,,0.00,,2013-01-25 20:32:00,
2013-01-25 14:42:00,41.0,20.0,29.84,SW,228,5.0,11.0,43,0.00,,,0.00,,2013-01-25 20:42:00,
2013-01-25 14:52:00,41.0,20.0,29.84,SW,227,4.0,11.0,43,0.00,,,0.00,,2013-01-25 20:52:00,
2013-01-25 15:02:00,41.0,21.0,29.84,West,259,2.0,11.0,44,0.00,,,0.00,,2013-01-25 21:02:00,
2013-01-25 15:12:00,41.0,21.0,29.84,West,259,2.0,11.0,44,0.00,,,0.00,,2013-01-25 21:12:00,
2013-01-25 15:22:00,42.0,21.0,29.83,SSE,160,4.0,14.0,42,0.00,,,0.00,,2013-01-25 21:22:00,
2013-01-25 15:32:00,41.0,20.0,29.83,SW,215,5.0,11.0,43,0.00,,,0.00,,2013-01-25 21:32:00,
2013-01-25 15:42:00,41.0,20.0,29.83,SW,215,5.0,11.0,43,0.00,,,0.00,,2013-01-25 21:42:00,
2013-01-25 15:52:00,42.0,21.0,29.83,WSW,243,3.0,9.0,43,0.00,,,0.00,,2013-01-25 21:52:00,
2013-01-25 16:02:00,42.0,21.0,29.84,SSW,201,2.0,9.0,43,0.00,,,0.00,,2013-01-25 22:02:00,
2013-01-25 16:11:00,42.0,21.0,29.84,SSW,201,2.0,9.0,43,0.00,,,0.00,,2013-01-25 22:11:00,
2013-01-25 16:22:00,41.0,21.0,29.84,WNW,289,2.0,5.0,45,0.00,,,0.00,,2013-01-25 22:22:00,
2013-01-25 16:32:00,40.0,21.0,29.84,WSW,238,2.0,5.0,47,0.00,,,0.00,,2013-01-25 22:32:00,
2013-01-25 16:42:00,40.0,21.0,29.84,WSW,238,2.0,5.0,47,0.00,,,0.00,,2013-01-25 22:42:00,
2013-01-25 16:51:00,37.0,21.0,29.84,SW,234,2.0,7.0,51,0.00,,,0.00,,2013-01-25 22:51:00,
2013-01-25 17:02:00,36.0,21.0,29.84,South,191,2.0,5.0,55,0.00,,,0.00,,2013-01-25 23:02:00,
2013-01-25 17:12:00,36.0,21.0,29.84,South,191,2.0,5.0,55,0.00,,,0.00,,2013-01-25 23:12:00,
2013-01-25 17:22:00,35.0,21.0,29.84,SE,142,1.0,4.0,57,0.00,,,0.00,,2013-01-25 23:22:00,
2013-01-25 17:32:00,34.0,22.0,29.85,SSE,157,1.0,6.0,60,0.00,,,0.00,,2013-01-25 23:32:00,
2013-01-25 17:42:00,34.0,22.0,29.85,SSE,157,1.0,6.0,60,0.00,,,0.00,,2013-01-25 23:42:00,
2013-01-25 17:52:00,33.0,21.0,29.86,SSE,157,2.0,4.0,62,0.00,,,0.00,,2013-01-25 23:52:00,
2013-01-25 18:02:00,33.0,22.0,29.86,ESE,118,2.0,4.0,64,0.00,,,0.00,,2013-01-26 00:02:00,
2013-01-25 18:11:00,33.0,22.0,29.86,ESE,118,2.0,4.0,64,0.00,,,0.00,,2013-01-26 00:11:00,
2013-01-25 18:22:00,32.0,22.0,29.86,SE,124,1.0,4.0,65,0.00,,,0.00,,2013-01-26 00:22:00,
2013-01-25 18:32:00,32.0,22.0,29.86,SE,124,1.0,4.0,65,0.00,,,0.00,,2013-01-26 00:32:00,
2013-01-25 18:42:00,32.0,22.0,29.86,SE,124,1.0,4.0,65,0.00,,,0.00,,2013-01-26 00:42:00,
2013-01-25 18:52:00,33.0,23.0,29.87,SE,135,2.0,5.0,65,0.00,,,0.00,,2013-01-26 00:52:00,
2013-01-25 19:01:00,33.0,23.0,29.87,East,92,2.0,5.0,65,0.00,,,0.00,,2013-01-26 01:01:00,
2013-01-25 19:11:00,33.0,23.0,29.87,East,92,2.0,5.0,65,0.00,,,0.00,,2013-01-26 01:11:00,
2013-01-25 19:22:00,33.0,22.0,29.87,WSW,237,2.0,5.0,63,0.00,,,0.00,,2013-01-26 01:22:00,
2013-01-25 19:32:00,33.0,22.0,29.87,South,186,2.0,8.0,64,0.00,,,0.00,,2013-01-26 01:32:00,
2013-01-25 19:42:00,33.0,22.0,29.87,South,186,2.0,8.0,64,0.00,,,0.00,,2013-01-26 01:42:00,
2013-01-25 19:52:00,32.0,21.0,29.87,South,182,2.0,6.0,64,0.00,,,0.00,,2013-01-26 01:52:00,
2013-01-25 20:01:00,33.0,22.0,29.88,South,178,2.0,5.0,63,0.00,,,0.00,,2013-01-26 02:01:00,
2013-01-25 20:11:00,33.0,22.0,29.88,South,178,2.0,5.0,63,0.00,,,0.00,,2013-01-26 02:11:00,
2013-01-25 20:22:00,33.0,22.0,29.88,WSW,255,2.0,6.0,63,0.00,,,0.00,,2013-01-26 02:22:00,
2013-01-25 20:32:00,32.0,21.0,29.87,South,190,2.0,7.0,63,0.00,,,0.00,,2013-01-26 02:32:00,
2013-01-25 20:42:00,32.0,21.0,29.87,South,190,2.0,7.0,63,0.00,,,0.00,,2013-01-26 02:42:00,
2013-01-25 20:52:00,32.0,21.0,29.87,South,176,2.0,6.0,63,0.00,,,0.00,,2013-01-26 02:52:00,
2013-01-25 21:02:00,32.0,21.0,29.88,SSE,159,2.0,6.0,63,0.00,,,0.00,,2013-01-26 03:02:00,
2013-01-25 21:11:00,32.0,21.0,29.88,SSE,159,2.0,6.0,63,0.00,,,0.00,,2013-01-26 03:11:00,
2013-01-25 21:21:00,32.0,21.0,29.88,West,280,2.0,6.0,64,0.00,,,0.00,,2013-01-26 03:21:00,
2013-01-25 21:31:00,32.0,22.0,29.89,West,266,2.0,7.0,65,0.00,,,0.00,,2013-01-26 03:31:00,
2013-01-25 21:42:00,32.0,22.0,29.89,West,266,2.0,7.0,65,0.00,,,0.00,,2013-01-26 03:42:00,
2013-01-25 21:52:00,31.0,22.0,29.90,SW,236,2.0,4.0,68,0.00,,,0.00,,2013-01-26 03:52:00,
2013-01-25 22:02:00,30.0,21.0,29.91,WSW,245,2.0,7.0,69,0.00,,,0.00,,2013-01-26 04:02:00,
2013-01-25 22:12:00,30.0,21.0,29.91,WSW,245,2.0,7.0,69,0.00,,,0.00,,2013-01-26 04:12:00,
2013-01-25 22:21:00,30.0,21.0,29.91,West,271,2.0,7.0,70,0.00,,,0.00,,2013-01-26 04:21:00,
2013-01-25 22:32:00,29.0,21.0,29.92,SW,236,1.0,4.0,71,0.00,,,0.00,,2013-01-26 04:32:00,
2013-01-25 22:42:00,29.0,21.0,29.92,SW,236,1.0,4.0,71,0.00,,,0.00,,2013-01-26 04:42:00,
2013-01-25 22:52:00,29.0,21.0,29.92,SW,233,2.0,4.0,72,0.00,,,0.00,,2013-01-26 04:52:00,
2013-01-25 23:03:00,29.0,21.0,29.93,WSW,242,2.0,4.0,72,0.00,,,0.00,,2013-01-26 05:03:00,
2013-01-25 23:12:00,29.0,21.0,29.93,WSW,242,2.0,4.0,72,0.00,,,0.00,,2013-01-26 05:12:00,
2013-01-25 23:23:00,28.0,20.0,29.94,SW,221,1.0,3.0,73,0.00,,,0.00,,2013-01-26 05:23:00,
2013-01-25 23:33:00,28.0,21.0,29.95,WSW,240,1.0,4.0,74,0.00,,,0.00,,2013-01-26 05:33:00,
2013-01-25 23:41:00,28.0,21.0,29.95,WSW,240,1.0,4.0,74,0.00,,,0.00,,2013-01-26 05:41:00,
2013-01-25 23:52:00,28.0,21.0,29.95,WSW,246,1.0,4.0,74,0.00,,,0.00,,2013-01-26 05:52:00,